La Paz, Mexico

6:55 PM MDT on August 31, 2016 (GMT -0600)
Gen Manuel Marquez De Leon

Weather History for MMLP - June, 2014

Change the Weather History Date:

Monday, June 9, 2014

  Actual Average Record
Temperature  
Mean Temperature 84 °F -  
Max Temperature 99 °F 95 °F 102 °F (2011)
Min Temperature 69 °F 67 °F 59 °F (2003)
Cooling Degree Days 19    
Growing Degree Days 34 (Base 50)    
Moisture  
Dew Point 52 °F    
Average Humidity 36    
Maximum Humidity 78    
Minimum Humidity 12    
Precipitation  
Precipitation 0.00 in - - ()
Sea Level Pressure  
Sea Level Pressure 29.76 in    
Wind  
Wind Speed 7 mph ()    
Max Wind Speed 12 mph    
Max Gust Speed -    
Visibility 10.5 miles    
Events      
Averages and records for this station are not official NWS values.
T = Trace of Precipitation, MM = Missing Value Source: Averaged Metar Reports

Daily Weather History Graph

Daily Weather History Graph

Search for Another Location

Airport or City:

Trip Planner

Search our weather history database for the weather conditions in past years. The results will help you decide how hot, cold, wet, or windy it might be!

Date:

Astronomy

Jun. 09, 2014 Rise Set
Actual Time 6:33 AM MDT 8:08 PM MDT
Civil Twilight 6:07 AM MDT 8:33 PM MDT
Nautical Twilight 5:37 AM MDT 9:04 PM MDT
Astronomical Twilight 5:05 AM MDT 9:36 PM MDT
Moon 4:52 PM MDT (6/9) 3:40 AM MDT (6/9)
Length of Visible Light 14h 26m
Length of Day
13h 35m
Waxing Gibbous, 85% of the Moon is Illuminated
Jun 9
Waxing Gibbous
Jun 12
Full
Jun 19
Last Quarter
Jun 27
New
Jul 5
First Quarter

Hourly Weather History & Observations

Time (MDT) Temp. Dew Point Humidity Pressure Visibility Wind Dir Wind Speed Gust Speed Precip Events Conditions
5:40 AM 68.0 °F 60.8 °F 78% 29.79 in 7.0 mi South 9.2 mph - N/A   Clear
5:50 AM 69 °F 64 °F 78% 29.79 in 2 mi South 8.9 mph - -  
8:40 AM 71.6 °F 60.8 °F 69% 29.82 in 7.0 mi South 9.2 mph - N/A   Clear
8:50 AM 76 °F 64 °F 58% 29.81 in 16 mi South 4.5 mph - -  
9:40 AM 77.0 °F 57.2 °F 50% 29.82 in 10.0 mi South 11.5 mph - N/A   Clear
10:40 AM 82.4 °F 42.8 °F 25% 29.82 in 10.0 mi South 6.9 mph - N/A   Clear
11:40 AM 87.8 °F 41.0 °F 19% 29.80 in 10.0 mi WSW 3.5 mph - N/A   Clear
11:50 AM 93 °F 46 °F 12% 29.79 in 19 mi South 2.2 mph - -  
12:40 PM 93.2 °F 39.2 °F 15% 29.78 in 10.0 mi Calm Calm - N/A   Clear
1:40 PM 95.0 °F 42.8 °F 16% 29.76 in 10.0 mi North 6.9 mph - N/A   Clear
2:50 PM 98 °F 57 °F 17% 29.74 in 19 mi NNW 8.9 mph - -  
2:51 PM 93.2 °F 50.0 °F 23% 29.73 in 10.0 mi North 11.5 mph - N/A   Clear
3:46 PM 93.2 °F 46.4 °F 20% 29.71 in 10.0 mi North 11.5 mph - N/A   Clear
4:41 PM 89.6 °F 50.0 °F 26% 29.70 in 10.0 mi NNW 9.2 mph - N/A   Clear
5:41 PM 91.4 °F 48.2 °F 23% 29.70 in 10.0 mi NW 9.2 mph - N/A   Clear
5:45 PM 99 °F 56 °F 15% 29.68 in 19 mi WNW 4.5 mph - -  
6:45 PM 87.8 °F 51.8 °F 29% 29.72 in 10.0 mi SW 11.5 mph - N/A   Clear
7:47 PM 84.2 °F 46.4 °F 27% 29.74 in 10.0 mi South 11.5 mph - N/A   Clear
8:45 PM 82 °F 53 °F 26% 29.73 in 2 mi South 6.7 mph - -  
8:46 PM 78.8 °F 48.2 °F 34% 29.77 in 10.0 mi SSW 11.5 mph - N/A   Clear
9:47 PM 75.2 °F 60.8 °F 61% 29.79 in 10.0 mi SSW 11.5 mph - N/A   Clear
10:45 PM 71.6 °F 62.6 °F 73% 29.83 in 10.0 mi South 9.2 mph - N/A   Clear